Regional Weather Roundup
Issued by NWS

Home | Current Version | Previous Version | Graphics & Text | Print | Product List | Glossary On
Versions: 1 2 3 4 5 6 7 8 9 10 11 12 13 14 15 16 17 18 19 20 21 22 23 24 25 26 27 28 29 30 31 32 33 34 35 36 37 38 39 40 41 42 43 44 45 46 47 48 49 50
000
ASUS43 KMKX 270221
RWRWI

WISCONSIN REGIONAL WEATHER ROUNDUP
NATIONAL WEATHER SERVICE MILWAUKEE/SULLIVAN WI
900 PM CDT WED APR 26 2017

NOTE: "FAIR" INDICATES FEW OR NO CLOUDS BELOW 12,000 FEET WITH NO
SIGNIFICANT WEATHER AND/OR OBSTRUCTIONS TO VISIBILITY.

WIZ001-002-006>008-014>016-023>028-270300-
NORTHWEST WISCONSIN

CITY           SKY/WX    TMP DP  RH WIND       PRES   REMARKS
SUPERIOR ARPT  CLOUDY    32  28  84 CALM      29.63R
ASHLAND        LGT SNOW  31  29  92 NE12      29.61R FOG     WCI  22
HAYWARD        LGT SNOW  32  29  88 NE9       29.56R FOG     WCI  24
SIREN          CLOUDY    34  31  88 NE10      29.59R WCI  26
CUMBERLAND     CLOUDY    32  32 100 N8        29.56R WCI  25
RICE LAKE      CLOUDY    35  32  88 N9        29.57R WCI  28
CHETEK         CLOUDY    36  32  86 N7        29.55S WCI  30
LADYSMITH      CLOUDY    35  32  88 N8        29.55S WCI  29
EAU CLAIRE     CLOUDY    38  34  85 NW9       29.53S WCI  31
MENOMONIE      CLOUDY    38  35  88 NW8       29.55R WCI  32
NEW RICHMOND   CLOUDY    36  33  88 N9        29.57R WCI  29
OSCEOLA        CLOUDY    37  32  84 N6        29.61R WCI  32
$$

WIZ003>005-009-010-017-018-270300-
NORTH CENTRAL WISCONSIN

CITY           SKY/WX    TMP DP  RH WIND       PRES   REMARKS
MANITOWISH WTR CLOUDY    32  32 100 N7        29.52R WCI  25
ARBOR VITAE    CLOUDY    34  33  94 N7        29.50R WCI  28
WOODRUFF       CLOUDY    34  33  94 N7        29.50R WCI  28
RHINELANDER    CLOUDY    37  37 100 NW8       29.50R WCI  31
EAGLE RIVER    CLOUDY    33  33  97 NW8       29.51R WCI  26
LAND O LAKES   CLOUDY    33  32  99 NW5       29.52R FOG     WCI  28
PHILLIPS       CLOUDY    32  32  99 N7        29.52S WCI  26
TOMAHAWK       CLOUDY    35  34  94 N5        29.51S WCI  31
MEDFORD        CLOUDY    37  35  94 N6        29.49F WCI  32
MERRILL        CLOUDY    39  39 100 N5        29.51R
$$

WIZ029-030-035-036-043>047-270300-
CENTRAL WISCONSIN

CITY           SKY/WX    TMP DP  RH WIND       PRES   REMARKS
WAUSAU         CLOUDY    43  41  93 W9        29.48R
MOSINEE        CLOUDY    43  39  87 W8        29.50R
MARSHFIELD     CLOUDY    40  37  89 NW10      29.49R WCI  33
STEVENS POINT  CLOUDY    42  40  93 W7        29.49S
WAUPACA        CLOUDY    49  47  92 W9        29.48S FOG
WAUTOMA        CLOUDY    46  44  93 NW10      29.48S
WISC RAPIDS    CLOUDY    44  42  93 NW7       29.50S
CAMP DOUGLAS   DRIZZLE   43  43 100 W7        29.50R FOG
$$

WIZ011>013-019>022-031-037>040-048>050-270300-
NORTHEAST WISCONSIN

CITY           SKY/WX    TMP DP  RH WIND       PRES   REMARKS
ANTIGO         CLOUDY    42  42  99 NW9       29.49R
SHAWANO        CLOUDY    54  50  86 W8        29.47R
OCONTO         CLOUDY    60  55  85 W13       29.43R
STURGEON BAY   CLOUDY    61  56  83 MISG      29.44R
GREEN BAY      CLOUDY    58  55  90 W12       29.45R
MANITOWOC      CLOUDY    61  56  83 SW3       29.44S
APPLETON       CLOUDY    52  50  93 W9        29.44S FOG
CLINTONVILLE   CLOUDY    48  46  93 W9        29.46S
OSHKOSH        CLOUDY    52  49  89 W9        29.44F
$$

WIZ032>034-041-042-053>061-270300-
SOUTHWEST WISCONSIN

CITY           SKY/WX    TMP DP  RH WIND       PRES   REMARKS
LA CROSSE      CLOUDY    44  39  82 N12       29.53R
SPARTA         CLOUDY    41  40  98 W7        29.52F FOG
VIROQUA        CLOUDY    41  40  96 W8        29.51R
BOSCOBEL       CLOUDY    47  41  80 W7        29.51S
PRAIRIE DU CHI CLOUDY    44  39  82 W14       29.52S
PLATTEVILLE    CLOUDY    46  46  97 W9        29.49F
$$

WIZ056-057-062-063-064-067-068-270300-
SOUTH CENTRAL WISCONSIN

CITY           SKY/WX    TMP DP  RH WIND       PRES   REMARKS
REEDSBURG      CLOUDY    46  46 100 W6        29.49S
BARABOO/DELLS  CLOUDY    47  45  94 NW6       29.47F FOG
LONE ROCK      CLOUDY    48  44  86 NW10      29.49S
MINERAL POINT  CLOUDY    46  46 100 W8        29.48S
MADISON        CLOUDY    51  48  89 VRB7      29.46S
MIDDLETON      CLOUDY    51  49  92 W7        29.48R
WATERTOWN      LGT RAIN  54  54 100 W6        29.47R
MONROE         CLOUDY    50  46  87 W9        29.46F
JANESVILLE     CLOUDY    54  54 100 W6        29.47R FOG
$$

WIZ051-052-058>065-066-070>072-270300-
SOUTHEAST WISCONSIN

CITY           SKY/WX    TMP DP  RH WIND       PRES   REMARKS
MILWAUKEE      CLOUDY    62  56  80 SW6       29.44F
WAUKESHA       DRIZZLE   55  54  94 W7        29.46F
MILWAUKEE/TIMM CLOUDY    61  52  72 SW5       29.44F
RACINE         CLOUDY    61  54  77 SW5       29.46S
KENOSHA        CLOUDY    61  54  77 SW6       29.45F
FOND DU LAC    CLOUDY    58  51  78 SW8       29.45S
SHEBOYGAN      CLOUDY    61  56  83 SW6       29.43F
WEST BEND      RAIN      57  54  88 W5        29.45S
JUNEAU         CLOUDY    53  51  91 W7        29.47S
$$

LSZ147-162-270300-
LAKE SUPERIOR

STATION/POSITION TIME  TEMP    WIND        PRES    WAVE
                       AIR SEA DIR/SP/G            HT/PER
                 (UTC) (F)     (DEG/KT/KT) (MB)    (FT/S)
DEVILS ISLAND    0200   29     360/ 19/ 23 1004.2R
PORT WING        2340   33      20/ 19/ 21 1002.4
SAXON HARBOR     0140   32      30/ 18/ 22 1002.4R
$$

LMZ867-665-643>646-270300-
LAKE MICHIGAN

STATION/POSITION TIME  TEMP    WIND        PRES    WAVE
                       AIR SEA DIR/SP/G            HT/PER
                 (UTC) (F)     (DEG/KT/KT) (MB)    (FT/S)
CHAMBERS ISLAND  0140   61     180/  3/  7  995.9R
N MID LAKE BUOY  0150   41 37  160/  8/ 12  997.9R   2/ 5
NORTHPORT PIER   0140   48     150/  5/ 14  996.6R
SISTER BAY       0021   59     180/ 12/ 14   N/A
KEWAUNEE LAKESHO 0154   62     210/  7/ 10  996.9R
SHEBOYGAN LAKESH 0200   60     200/  3/  4  996.3F
PORT WASHINGTON  0130   64     240/  4/  9  998.0F
MILWAUKEE LAKESH 0200   59     170/  5/  6   N/A
S MID LAKE BUOY  0150   51 42  240/  4/  4  997.7R   1
KENOSHA   LAKESH 0200   63     250/  5/  9  997.3
$$

TC  - TEMPERATURE IN CELSIUS
VSB - VISIBILITY IN STATUTE MILES
WCI - WIND CHILL INDEX
HX  - HEAT INDEX





USA.gov is the U.S. government's official web portal to all federal, state and local government web resources and services.